Location: Hains Lake
(37.8540°N, 99.8578°W)
Time: 18:28:02
(UTC+00:00)

Courier 1B Rocket - Pass Details

Date: 20 April 2021
Orbit: 920 x 1202 km, 28.2° (Epoch: 05 May)

Event Time Altitude Azimuth Distance (km) Brightness Sun altitude
Rises 04:51:14 0° 258° (WSW) 3,808 8.3 -34.6°
Reaches altitude 10° 04:54:04 10° 250° (WSW) 2,898 7.6 -34.8°
Enters shadow 04:55:25 16° 244° (WSW) 2,501 7.1 -35.0°
